Location: Borea
(45.6167°N, 23.0167°E)
Time: 02:42:04
(UTC+00:00)

OPS 8068 - Pass Details

Date: 26 February 2024
Orbit: 631 x 963 km, 98.3° (Epoch: 13 April)

Event Time Altitude Azimuth Distance (km) Brightness Sun altitude
Rises 03:01:20 0° 163° (SSE) 2,913 ? -23.7°
Reaches altitude 10° 03:03:28 10° 162° (SSE) 2,020 ? -23.3°
Maximum altitude 03:07:50 84° 75° (ENE) 666 ? -22.6°
Drops below altitude 10° 03:12:29 10° 348° (NNW) 2,145 ? -21.8°
Sets 03:14:49 0° 347° (NNW) 3,111 ? -21.4°
